Simultaneous Nadir Overpasses (SNOs) Predictions

Prediction of SNOs between GOES-18 and NOAA-21 Satellite Orbit:

Table of predicted SNOs for the next 14.0 days since TLE Epoch: 7/5/2024
Index Date Time (GOES-18) GOES-18 Lat,Lon NOAA-21 Lat,Lon Distance(km) Time Diff (sec)
1 07/06/2024 10:37:06 -0.02,-137.00 0.31,-138.36 155.32 80
2 07/07/2024 10:21:03 -0.02,-137.00 -0.72,-133.83 360.42 80
3 07/08/2024 22:40:21 0.03,-136.99 -0.45,-139.14 244.80 80
4 07/09/2024 22:24:17 0.03,-136.99 0.53,-134.61 270.94 80
5 07/11/2024 10:43:26 -0.03,-136.98 0.60,-139.88 331.01 80
6 07/12/2024 10:27:22 -0.03,-136.97 -0.37,-135.35 184.50 80
7 07/13/2024 22:46:40 0.03,-136.96 -0.78,-140.66 421.41 80
8 07/14/2024 22:30:35 0.03,-136.95 0.21,-136.12 93.70 80
9 07/17/2024 10:33:40 -0.04,-136.90 -0.06,-136.86 5.12 80
